Location: Peebles
(55.6412°N, 3.1714°W)
Time: 22:55:34
(UTC+00:00)

YAOGAN 1 - Visible Passes

Search period start: 27 January 2022 00:00
Search period end: 06 February 2022 00:00
Orbit: 618 x 620 km, 97.9° (Epoch: 27 January)

Date Brightness Start Highest point End Pass type
(mag) Time Alt. Az. Time Alt. Az. Time Alt. Az.
27 Jan 4.6 07:25:49 10° NNE 07:29:45 33° E 07:33:41 10° SSE visible
27 Jan 2.5 18:27:09 10° SSE 18:31:26 65° ENE 18:35:44 10° N visible
27 Jan 5.1 20:04:44 10° SW 20:07:57 20° W 20:11:11 10° NW visible
28 Jan 2.5 18:44:02 10° SSE 18:48:23 90° NNE 18:52:44 10° NNW visible
28 Jan 5.5 20:22:40 10° WSW 20:25:07 15° W 20:27:35 10° NW visible
29 Jan 6.2 06:26:10 10° ENE 06:26:51 10° E 06:27:31 10° E visible
29 Jan 3.7 17:26:15 10° ESE 17:29:37 22° ENE 17:32:59 10° N visible
29 Jan 2.9 19:01:03 10° S 19:05:21 65° WSW 19:09:41 10° NNW visible
29 Jan 5.9 20:41:28 10° W 20:42:20 10° W 20:43:12 10° WNW visible
30 Jan 5.7 06:41:38 10° NE 06:44:04 14° E 06:46:28 10° ESE visible
30 Jan 3.4 17:42:41 10° ESE 17:46:25 29° ENE 17:50:10 10° N visible
30 Jan 3.6 19:18:12 10° S 19:22:22 46° W 19:26:34 10° NNW visible
31 Jan 5.5 06:58:01 10° NE 07:01:14 20° E 07:04:24 10° SE visible
31 Jan 3.0 17:59:15 10° SE 18:03:15 39° ENE 18:07:18 10° N visible
31 Jan 4.2 19:35:29 10° SSW 19:39:25 33° W 19:43:23 10° NNW visible
01 Feb 5.1 07:14:38 10° NE 07:18:21 27° E 07:22:02 10° SSE visible
01 Feb 2.7 18:15:56 10° SE 18:20:09 53° ENE 18:24:22 10° N visible
01 Feb 4.8 19:52:57 10° SSW 19:56:31 25° W 20:00:06 10° NW visible
02 Feb 2.4 18:32:45 10° SSE 18:37:04 73° ENE 18:41:24 10° NNW visible
02 Feb 5.3 20:10:39 10° SW 20:13:39 18° W 20:16:41 10° NW visible
03 Feb 2.6 18:49:40 10° SSE 18:54:01 82° WSW 18:58:22 10° NNW visible
03 Feb 5.7 20:28:44 10° WSW 20:30:50 13° W 20:32:56 10° NW visible
04 Feb 6.0 06:31:02 10° ENE 06:32:34 12° E 06:34:05 10° ESE visible
04 Feb 3.6 17:31:42 10° ESE 17:35:11 24° ENE 17:38:42 10° N visible
04 Feb 3.2 19:06:44 10° S 19:11:00 58° W 19:15:17 10° NNW visible
05 Feb 5.7 06:47:02 10° NE 06:49:46 16° E 06:52:28 10° SE visible
05 Feb 3.3 17:48:10 10° SE 17:52:00 32° ENE 17:55:52 10° N visible
05 Feb 3.8 19:23:55 10° S 19:28:01 42° W 19:32:09 10° NNW visible
